{"data":{"norad_id":67457,"epoch":"2026-05-25T00:28:04.558080Z","epoch_age_seconds":76507,"freshness":"FRESH","line1":"1 67457U 26008N   26145.01949720  .00019943  00000+0  73184-3 0  9996","line2":"2 67457  43.0050 134.3522 0002723 269.3850  90.6690 15.27597425 21246","mean_motion":15.27597425,"eccentricity":0.0002723,"inclination_deg":43.005,"raan_deg":134.3522,"arg_perigee_deg":269.385,"mean_anomaly_deg":90.669,"bstar":0.00073184,"rev_number":2124,"period_min":94.265673431598,"perigee_km":481.12863305065,"apogee_km":484.86520658338,"semimajor_km":6861.133919817,"source":"CELESTRAK","updated_at":"2026-05-25T13:38:21.561893Z"}}